Content
SEND FEEDBACK

Daily
Averages
Monthly
Summary
United States of America

SWANZEY, NEW HAMPSHIRE


Home > North America > United States > New Hampshire
Elevation: 503 feet     Latitude: 42 55N     Longitude: 072 16W

WEATHER
 
SELECT A DAY
Number of Records: 445,156;   Date Range: 1/1/95 - 7/20/14
 
SHARE

PRINT THIS DATA

[ ← Previous Day ]
WEATHER ALMANAC - FEBRUARY 13, 2013
[ Next Day → ]
[ °C ]   °F
Weather ElementAverageHighLow
Temperature32.7 °F37.4 °F (1:15 pm)26.6 °F (6:55 pm)
Dewpoint19.9 °F21.2 °F (12:35 am)17.6 °F (12:55 pm)
Humidity60.1 %80 % (9:15 pm)45 % (1:15 pm)
Barometer29.80 in29.86 in (7:35 am)29.73 in (7:55 pm)
Wind Speed2.8 mph9.2 mph (1:35 pm)
Weather ElementAverage
Visibility10 mi
Wind DirectionSSE (142.4 °)

Weather ElementTotal
Precipitation---
Heating Degree Days33 (Base 65)
Averaged from 67 records on February 13, 2013
WEATHER CONDITIONS BREAKOUT
WIND DIRECTION BREAKOUT
WEATHER BY HOUR - FEBRUARY 13, 2013
[ °C ]   °F
Local TimeTemperatureDewpointHumidityBarometerVisibilityWind DirectionWind SpeedGust SpeedPrecipitationEventsConditions
12:35 AM33.8 °F21.2 °F60 %29.85 in10.0 miWNW (290°)3.5 mphOvercast
12:55 AM33.8 °F21.2 °F60 %29.84 in10.0 miWest (280°)4.6 mphOvercast
1:15 AM33.8 °F21.2 °F60 %29.83 in10.0 miWNW (300°)6.9 mphOvercast
1:35 AM33.8 °F21.2 °F60 %29.83 in10.0 miWNW (300°)5.8 mphOvercast
1:55 AM33.8 °F19.4 °F56 %29.83 in10.0 miWest (260°)4.6 mphOvercast
2:15 AM33.8 °F21.2 °F60 %29.84 in10.0 miWest (260°)3.5 mphOvercast
2:35 AM33.8 °F21.2 °F60 %29.84 in10.0 miWest (260°)4.6 mphOvercast
2:55 AM33.8 °F21.2 °F60 %29.83 in10.0 miCalmOvercast
3:15 AM33.8 °F21.2 °F60 %29.84 in10.0 miWest (270°)3.5 mphOvercast
3:35 AM32.0 °F21.2 °F64 %29.85 in10.0 miWSW (250°)3.5 mphOvercast
3:55 AM33.8 °F21.2 °F60 %29.85 in10.0 miWest (280°)5.8 mphOvercast
4:15 AM33.8 °F21.2 °F60 %29.85 in10.0 miWest (260°)3.5 mphOvercast
4:35 AM33.8 °F21.2 °F60 %29.85 in10.0 miCalmOvercast
4:55 AM33.8 °F19.4 °F56 %29.85 in10.0 miWSW (250°)4.6 mphOvercast
5:15 AM32.0 °F21.2 °F64 %29.85 in10.0 miCalmOvercast
5:35 AM32.0 °F21.2 °F64 %29.84 in10.0 miWSW (250°)3.5 mphOvercast
5:55 AM32.0 °F21.2 °F64 %29.84 in10.0 miWSW (250°)3.5 mphOvercast
6:15 AM32.0 °F19.4 °F60 %29.84 in10.0 miWest (270°)4.6 mphOvercast
6:35 AM32.0 °F21.2 °F64 %29.85 in10.0 miCalmOvercast
6:55 AM32.0 °F21.2 °F64 %29.85 in10.0 miCalmOvercast
7:15 AM32.0 °F21.2 °F64 %29.85 in10.0 miCalmOvercast
7:35 AM32.0 °F21.2 °F64 %29.86 in10.0 miSSW (210°)3.5 mphOvercast
7:55 AM33.8 °F21.2 °F60 %29.86 in10.0 miCalmOvercast
8:15 AM33.8 °F19.4 °F56 %29.86 in10.0 miCalmMostly Cloudy
8:35 AM33.8 °F19.4 °F56 %29.86 in10.0 miWSW (250°)4.6 mphScattered Clouds
8:55 AM33.8 °F19.4 °F56 %29.85 in10.0 miCalmMostly Cloudy
9:35 AM33.8 °F19.4 °F56 %29.85 in10.0 miNNW (340°)6.9 mphOvercast
9:55 AM35.6 °F19.4 °F52 %29.84 in10.0 miCalmOvercast
10:15 AM35.6 °F19.4 °F52 %29.84 in10.0 miWest (280°)4.6 mphOvercast
10:35 AM35.6 °F19.4 °F52 %29.84 in10.0 miNW (310°)5.8 mphOvercast
10:55 AM35.6 °F19.4 °F52 %29.83 in10.0 miNNW (330°)5.8 mphOvercast
11:15 AM35.6 °F19.4 °F52 %29.83 in10.0 miNNW (340°)4.6 mphOvercast
11:36 AM35.6 °F19.4 °F52 %29.82 in10.0 miNNW (330°)5.8 mphOvercast
11:55 AM35.6 °F19.4 °F52 %29.82 in10.0 miNorth (10°)6.9 mphOvercast
12:15 PM35.6 °F19.4 °F52 %29.81 in10.0 miWNW (300°)4.6 mphOvercast
12:35 PM35.6 °F19.4 °F52 %29.81 in10.0 miWest (270°)3.5 mphOvercast
12:55 PM35.6 °F17.6 °F48 %29.80 in10.0 miNorth (10°)4.6 mphOvercast
1:15 PM37.4 °F17.6 °F45 %29.80 in10.0 miSSW (210°)6.9 mphOvercast
1:35 PM37.4 °F17.6 °F45 %29.80 in10.0 miSW (220°)9.2 mphOvercast
1:55 PM37.4 °F17.6 °F45 %29.80 in10.0 miWSW (240°)8.1 mphMostly Cloudy
2:15 PM37.4 °F17.6 °F45 %29.78 in10.0 miCalmMostly Cloudy
2:35 PM37.4 °F17.6 °F45 %29.78 in10.0 miWNW (290°)5.8 mphOvercast
2:56 PM37.4 °F17.6 °F45 %29.77 in10.0 miCalmOvercast
3:15 PM37.4 °F19.4 °F48 %29.77 in10.0 miNE (40°)4.6 mphOvercast
3:35 PM37.4 °F19.4 °F48 %29.76 in10.0 miNorth (360°)4.6 mphOvercast
3:55 PM37.4 °F17.6 °F45 %29.75 in10.0 miWSW (250°)3.5 mphOvercast
4:15 PM37.4 °F17.6 °F45 %29.76 in10.0 miWSW (240°)5.8 mphMostly Cloudy
4:35 PM35.6 °F19.4 °F52 %29.76 in10.0 miWest (270°)3.5 mphPartly Cloudy
5:15 PM33.8 °F19.4 °F56 %29.75 in10.0 miCalmClear
5:35 PM30.2 °F19.4 °F64 %29.74 in10.0 miCalmClear
5:55 PM30.2 °F19.4 °F64 %29.74 in10.0 miCalmClear
6:15 PM28.4 °F19.4 °F69 %29.74 in10.0 miCalmClear
6:35 PM28.4 °F19.4 °F69 %29.75 in10.0 miCalmClear
6:55 PM26.6 °F19.4 °F74 %29.75 in10.0 miSSW (210°)3.5 mphClear
7:15 PM28.4 °F19.4 °F69 %29.74 in10.0 miCalmClear
7:35 PM26.6 °F19.4 °F74 %29.74 in10.0 miCalmClear
7:55 PM26.6 °F19.4 °F74 %29.73 in10.0 miCalmClear
8:35 PM26.6 °F19.4 °F74 %29.76 in10.0 miSSW (200°)3.5 mphClear
8:55 PM26.6 °F19.4 °F74 %29.76 in10.0 miCalmClear
9:15 PM26.6 °F21.2 °F80 %29.75 in10.0 miCalmClear
9:35 PM26.6 °F21.2 °F80 %29.73 in10.0 miCalmPartly Cloudy
9:55 PM26.6 °F21.2 °F80 %29.74 in10.0 miCalmScattered Clouds
10:15 PM26.6 °F21.2 °F80 %29.74 in10.0 miCalmScattered Clouds
10:55 PM28.4 °F21.2 °F74 %29.73 in10.0 miCalmScattered Clouds
11:15 PM28.4 °F21.2 °F74 %29.73 in10.0 miCalmPartly Cloudy
11:35 PM28.4 °F21.2 °F74 %29.73 in10.0 miCalmClear
11:55 PM26.6 °F19.4 °F74 %29.73 in10.0 miCalmClear
Hourly data recorded from KEEN, located miles away from Swanzey, New Hampshire







STORIES FROM OUR PARTNERS